Regional Weather Roundup
Issued by NWS

Home | Current Version | Previous Version | Graphics & Text | Print | Product List | Glossary Off
Versions: 1 2 3 4 5 6 7 8 9 10 11 12 13 14 15 16 17 18 19 20 21 22 23 24 25 26 27 28 29 30 31 32 33 34 35 36 37 38 39 40 41 42 43 44 45 46 47 48 49 50

000
ASUS43 KDMX 241501
RWRIA

WEATHER ROUNDUP FOR IOWA
NATIONAL WEATHER SERVICE DES MOINES IA
1000 AM CDT SUN SEP 24 2017

NOTE: "FAIR" INDICATES FEW OR NO CLOUDS BELOW 12,000 FEET WITH NO
SIGNIFICANT WEATHER AND/OR OBSTRUCTIONS TO VISIBILITY.

* - THESE STATIONS ARE NOT NWS STATIONS...THUS NOT UNDER NWS
QUALITY CONTROL.  THEY ALSO DO NOT REPORT WEATHER SUCH
AS PRECIPITATION OR FOG.

IAZ001>003-012>014-020>022-031>034-043>046-241600-
   NORTHWEST IOWA

CITY           SKY/WX    TMP DP  RH WIND       PRES   REMARKS
CARROLL *      SUNNY     79  68  69 S9        29.95F HX  81
DENISON *      SUNNY     77  66  69 S12G17    29.95S
LE MARS *      MOSUNNY   77  66  69 S14       29.90S
ORANGE CITY *  MOSUNNY   77  70  78 S15G23    29.91S
SHELDON *      MOSUNNY   75  66  73 S14G20    29.90F
SIOUX CITY     MOSUNNY   75  67  76 S15G22    29.90S
SPENCER        SUNNY     78  65  63 S16       29.93F HX  80
STORM LAKE *   SUNNY     77  66  69 S13       29.95S
$$

IAZ055>058-069>071-079>083-090>094-241600-
   SOUTHWEST IOWA

CITY           SKY/WX    TMP DP  RH WIND       PRES   REMARKS
ATLANTIC *     SUNNY     79  66  65 S12       29.96S HX  81
AUDUBON *      SUNNY     77  68  73 S9        29.97F
CLARINDA *     SUNNY     79  68  69 S8G16     29.98S HX  81
COUNCIL BLFS * MOSUNNY   75  70  83 S13       29.94S
CRESTON *      SUNNY     79  66  65 S12       30.00S HX  81
HARLAN  *      SUNNY     79  66  65 S9G15     29.98S HX  81
LAMONI         SUNNY     77  67  71 S8        30.00R
RED OAK *      MOSUNNY   81  66  61 S10G16    29.95F HX  83
SHENANDOAH *   MOSUNNY   81  66  61 S12G17    29.95S HX  83
$$

IAZ047>049-059>061-072>074-084-241600-
   CENTRAL IOWA

CITY           SKY/WX    TMP DP  RH WIND       PRES   REMARKS
AMES           SUNNY     76  67  73 SE6       29.99S
ANKENY *       SUNNY     77  66  69 VRB6      29.99S
BOONE *        SUNNY     79  64  61 S9        29.98S HX  81
CHARITON *     SUNNY     79  66  65 S9G15     30.00S HX  81
DES MOINES     MOSUNNY   78  65  63 SE6G17    29.97S HX  80
GRINNELL*      SUNNY     76  64  65 S7        30.03S
KNOXVILLE *    SUNNY     79  64  61 S9        29.99S HX  81
MARSHALLTOWN   SUNNY     76  65  68 S10       29.99F
NEWTON *       SUNNY     77  64  65 S10       30.01S
PELLA *        SUNNY     79  64  59 S7        30.02R HX  80
PERRY *          N/A     80  67  64 S6        29.97S HX  82
$$

IAZ004>006-015-016-023>025-035-036-241600-
   NORTH CENTRAL IOWA

CITY           SKY/WX    TMP DP  RH WIND       PRES   REMARKS
ALGONA *       SUNNY     79  68  69 S12       29.97S HX  81
CLARION *      SUNNY     81  64  57 S12       29.98S HX  82
ESTHERVILLE    SUNNY     74  67  78 S13       29.94F
FORT DODGE *   SUNNY     78  66  66 S8        29.97F HX  80
MASON CITY     SUNNY     77  63  61 S12       30.01S
FOREST CITY *    N/A     77  64  65 S9        29.99S
WEBSTER CITY * SUNNY     79  64  61 S9G15     29.96S HX  81
IOWA FALLS *     N/A     77  64  65 SE9       30.01S
$$

IAZ007>011-017>019-026>030-037>042-050>054-066-241600-
   NORTHEAST IOWA

CITY           SKY/WX    TMP DP  RH WIND       PRES   REMARKS
CEDAR RAPIDS   SUNNY     79  63  57 S8        30.03S HX  80
CHARLES CITY * SUNNY     77  63  61 S10       30.02S
CLINTON *      SUNNY    N/A N/A N/A S10       30.06F
DECORAH *      SUNNY     77  63  61 S7        30.02F
DUBUQUE        SUNNY     77  64  64 S7        30.06S
MONTICELLO *   SUNNY     81  64  57 VRB6      30.04S HX  82
OELWEIN *      SUNNY     79  64  61 S10       30.03F HX  81
WATERLOO       SUNNY     77  62  59 S9        30.00S
$$

IAZ064-065-067-068-078-241600-
   EAST CENTRAL IOWA

CITY           SKY/WX    TMP DP  RH WIND       PRES   REMARKS
DAVENPORT      SUNNY     79  63  57 S8        30.07S HX  80
IOWA CITY      SUNNY     79  65  62 SE8       30.05S HX  81
MUSCATINE *    SUNNY     75  64  69 SE6       30.05R HAZE
QUAD CITIES    SUNNY     79  63  57 S6        30.05S HX  80
$$

IAZ062-063-075>077-085>089-095>099-241600-
   SOUTHEAST IOWA

CITY           SKY/WX    TMP DP  RH WIND       PRES   REMARKS
BURLINGTON     SUNNY     78  65  63 S7        30.05R HX  80
FAIRFIELD *    SUNNY     79  63  57 S9        30.03S HX  80
FORT MADISON * SUNNY     79  64  61 S6        30.06R HX  81
KEOKUK *       MOSUNNY   81  64  57 VRB3      30.04S HX  82
OSKALOOSA *      N/A     79  64  61 S7        30.02S HX  80
OTTUMWA        SUNNY     78  65  63 S7        30.02R HX  80
WASHINGTON *   MOSUNNY   77  66  69 S5        30.05S
$$

ABBREVIATIONS USED IN REMARKS
   TC - TEMPERATURES IN CELSIUS
  WCI - WIND CHILL INDEX
   HX - HEAT INDEX
  VSB - VISIBILITY
$$




USA.gov is the U.S. government's official web portal to all federal, state and local government web resources and services.